NV7SW Weather Reports


Display with metric or nautical units.
time (UTC)temp
F
wind
direction
speed
MPH
gust
MPH
rain 1hr
in
rain 24hr
in
rain mn
in
humidity
%
barometer
mb
20260902194545 67 186 9.0 22.0 0.00 0.00 0.00 19 1006.0
20260902193046 67 219 13.0 20.0 0.00 0.00 0.00 18 1006.1
20260902191548 67 180 8.0 17.0 0.00 0.00 0.00 19 1006.2
20260902190041 66 177 10.0 18.0 0.00 0.00 0.00 19 1006.3
20260902184539 65 219 13.0 21.0 0.00 0.00 0.00 19 1006.3
20260902183046 65 165 8.0 18.0 0.00 0.00 0.00 20 1006.4
20260902181536 65 182 9.0 15.0 0.00 0.00 0.00 20 1006.4
20260902180033 64 196 4.0 11.0 0.00 0.00 0.00 20 1006.3
20260902174532 64 220 9.0 15.0 0.00 0.00 0.00 20 1006.4
20260902173032 64 202 7.0 16.0 0.00 0.00 0.00 21 1006.5
20260902171528 62 192 4.0 14.0 0.00 0.00 0.00 21 1006.4
20260902170027 62 212 7.0 16.0 0.00 0.00 0.00 21 1006.3
20260902164624 62 184 4.0 12.0 0.00 0.00 0.00 21 1006.2
20260902163024 62 159 4.0 10.0 0.00 0.00 0.00 21 1006.1
20260902161523 61 227 4.0 13.0 0.00 0.00 0.00 22 1006.0
20260902160023 60 360 5.0 12.0 0.00 0.00 0.00 22 1006.1
20260902154531 59 205 7.0 12.0 0.00 0.00 0.00 23 1006.1
20260902153021 58 163 8.0 13.0 0.00 0.00 0.00 23 1006.0
20260902151520 58 206 4.0 10.0 0.00 0.00 0.00 24 1005.9
20260902150018 57 221 4.0 11.0 0.00 0.00 0.00 25 1005.9
20260902144516 55 175 7.0 11.0 0.00 0.00 0.00 26 1005.8
20260902143017 54 181 5.0 11.0 0.00 0.00 0.00 26 1005.5
20260902141522 54 185 6.0 11.0 0.00 0.00 0.00 25 1005.2
20260902140013 54 213 6.0 12.0 0.00 0.00 0.00 24 1005.2
20260902134508 55 204 7.0 10.0 0.00 0.00 0.00 23 1005.0
20260902133007 55 234 7.0 18.0 0.00 0.00 0.00 23 1004.9
20260902131505 53 316 4.0 8.0 0.00 0.00 0.00 24 1004.8
20260902124605 57 213 6.0 9.0 0.00 0.00 0.00 21 1004.4
20260902123055 58 250 3.0 20.0 0.00 0.00 0.00 20 1004.2
20260902121558 57 167 7.0 15.0 0.00 0.00 0.00 21 1004.0
20260902120050 56 236 8.0 14.0 0.00 0.00 0.00 23 1004.0
20260902114546 57 242 4.0 9.0 0.00 0.00 0.00 23 1003.6
20260902113045 58 154 3.0 11.0 0.00 0.00 0.00 22 1003.3
20260902111542 58 187 2.0 14.0 0.00 0.00 0.00 22 1003.1
20260902110039 58 189 8.0 12.0 0.00 0.00 0.00 23 1003.0
20260902104544 58 209 4.0 10.0 0.00 0.00 0.00 23 1002.8
20260902103043 60 259 6.0 15.0 0.00 0.00 0.00 22 1002.5
20260902101542 60 228 10.0 16.0 0.00 0.00 0.00 22 1002.1
20260902100030 58 240 6.0 11.0 0.00 0.00 0.00 23 1002.1
20260902094530 58 217 3.0 9.0 0.00 0.00 0.00 24 1002.1
20260902093028 59 209 6.0 13.0 0.00 0.00 0.00 23 1002.1
20260902091527 59 196 4.0 9.0 0.00 0.00 0.00 25 1001.9
20260902090022 59 235 5.0 12.0 0.00 0.00 0.00 25 1002.0
20260902084533 59 170 8.0 14.0 0.00 0.00 0.00 25 1001.9
20260902083022 60 217 2.0 5.0 0.00 0.00 0.00 24 1001.8
20260902081514 60 241 5.0 9.0 0.00 0.00 0.00 23 1001.7
20260902080013 60 202 3.0 6.0 0.00 0.00 0.00 24 1001.5
20260902074511 60 293 2.0 4.0 0.00 0.00 0.00 26 1001.3
20260902073010 61 301 4.0 5.0 0.00 0.00 0.00 23 1001.2
20260902071506 61 270 5.0 8.0 0.00 0.00 0.00 23 1001.2
20260902070007 62 265 2.0 8.0 0.00 0.00 0.00 21 1001.2
20260902064506 62 264 2.0 7.0 0.00 0.00 0.00 22 1001.0
20260902063001 62 272 2.0 5.0 0.00 0.00 0.00 24 1000.9
20260902061501 64 220 1.0 4.0 0.00 0.00 0.00 24 1000.9
20260902060111 64 213 3.0 7.0 0.00 0.00 0.00 21 1000.9
20260902054602 64 186 2.0 6.0 0.00 0.00 0.00 21 1000.8
20260902053059 63 207 0.0 5.0 0.00 0.00 0.00 24 1000.5
20260902051558 63 254 3.0 6.0 0.00 0.00 0.00 26 1000.6
20260902050111 63 275 1.0 4.0 0.00 0.00 0.00 25 1000.7
20260902044608 63 300 2.0 4.0 0.00 0.00 0.00 23 1000.5
20260902043057 64 271 1.0 3.0 0.00 0.00 0.00 23 1000.5
20260902041556 65 299 3.0 4.0 0.00 0.00 0.00 21 1000.5
20260902040058 66 99 0.0 2.0 0.00 0.00 0.00 20 1000.4
20260902034601 67 312 0.0 2.0 0.00 0.00 0.00 20 1000.2
20260902033104 68 313 1.0 4.0 0.00 0.00 0.00 19 1000.0
20260902031554 68 242 0.0 4.0 0.00 0.00 0.00 16 999.9
20260902030054 69 336 1.0 2.0 0.00 0.00 0.00 16 999.6
20260902024601 71 242 0.0 2.0 0.00 0.00 0.00 15 999.5
20260902023100 73 240 0.0 3.0 0.00 0.00 0.00 14 999.5
20260902021555 75 241 2.0 5.0 0.00 0.00 0.00 13 999.4
20260902020052 76 360 5.0 8.0 0.00 0.00 0.00 11 999.5
20260902014550 78 133 7.0 12.0 0.00 0.00 0.00 10 999.5
20260902013049 79 142 8.0 14.0 0.00 0.00 0.00 9 999.5
20260902011548 80 147 6.0 12.0 0.00 0.00 0.00 10 999.7
20260902010047 81 180 11.0 21.0 0.00 0.00 0.00 9 999.8
20260902004547 81 223 11.0 19.0 0.00 0.00 0.00 9 999.8
20260902003046 82 155 12.0 28.0 0.00 0.00 0.00 8 999.8
20260902001545 82 207 7.0 19.0 0.00 0.00 0.00 8 999.7
20260902000043 83 205 10.0 23.0 0.00 0.00 0.00 9 999.9
20260901234541 83 155 7.0 21.0 0.00 0.00 0.00 9 1000.1
20260901233039 82 204 15.0 21.0 0.00 0.00 0.00 9 1000.1
20260901231537 82 148 11.0 23.0 0.00 0.00 0.00 10 1000.2
20260901230035 82 163 5.0 22.0 0.00 0.00 0.00 10 1000.5
20260901224533 82 178 11.0 26.0 0.00 0.00 0.00 10 1000.6
20260901223041 82 116 11.0 21.0 0.00 0.00 0.00 11 1000.7
20260901221530 82 132 14.0 28.0 0.00 0.00 0.00 11 1000.9
20260901220035 82 155 11.0 25.0 0.00 0.00 0.00 13 1001.0
20260901214533 82 185 11.0 31.0 0.00 0.00 0.00 13 1001.1
20260901213032 81 126 12.0 23.0 0.00 0.00 0.00 14 1001.2
20260901211523 81 157 7.0 23.0 0.00 0.00 0.00 15 1001.3
20260901210020 81 158 7.0 17.0 0.00 0.00 0.00 15 1001.6
20260901204517 80 155 12.0 24.0 0.00 0.00 0.00 17 1001.9
20260901203015 80 124 9.0 23.0 0.00 0.00 0.00 18 1001.9
20260901201512 79 192 17.0 31.0 0.00 0.00 0.00 19 1002.2
20260901200010 78 155 20.0 35.0 0.00 0.00 0.00 19 1002.2